Regional Weather Roundup
Issued by NWS Newport/Morehead, NC

Current Version | Previous Version | Graphics & Text | Print | Product List | Glossary On
Versions: 1 2 3 4 5 6 7 8 9 10 11 12 13 14 15 16 17 18 19 20 21 22 23 24 25 26 27 28 29 30 31 32 33 34 35 36 37 38 39 40 41 42 43 44 45 46 47 48 49 50
000 ASUS42 KMHX 261122 RWRMHX WEATHER ROUNDUP FOR EASTERN NORTH CAROLINA NATIONAL WEATHER SERVICE NEWPORT/MOREHEAD CITY NC 600 AM EST WED NOV 26 2014 NOTE: "FAIR" INDICATES FEW OR NO CLOUDS BELOW 12,000 FEET WITH NO SIGNIFICANT WEATHER AND/OR OBSTRUCTIONS TO VISIBILITY NCZ015>017-031-032-045>047-102-103-261200- NORTH COAST CITY SKY/WX TMP DP RH WIND PRES REMARKS EDENTON RAIN 54 53 97 NE13G23 29.83F ELIZABETH CITY LGT RAIN 56 51 84 NE10G31 29.87F KITTY HAWK DRIZZLE 62 61 98 E6 29.83F MANTEO DRIZZLE 62 62 99 E13 29.85S $$ NCZ045>047-081-094-103-104-261200- CENTRAL COAST CITY SKY/WX TMP DP RH WIND PRES REMARKS FRISCO CLOUDY 66 66 100 SE6 29.83R FOG SWANQUARTER N/A 63 N/A N/A NE7G13 29.77F $$ NCZ095-097-098-100-101-261200- SOUTHERN COAST CITY SKY/WX TMP DP RH WIND PRES REMARKS BEAUFORT CLOUDY 68 66 93 SE12G18 29.79F CEDAR ISLAND N/A 59 N/A N/A E5 29.82S JACKSONVILLE CLOUDY 62 61 96 NE6 29.77F FOG PINEY ISLAND CLOUDY 61 58 90 E8 29.79F FOG WILMINGTON CLOUDY 68 66 93 SE5 29.75R $$ NCZ011>013-027>030-043-044-078>080-089-090>093-098-261200- COASTAL PLAIN CITY SKY/WX TMP DP RH WIND PRES REMARKS AHOSKIE RAIN 45 43 94 N14 29.89F CLINTON RAIN 53 53 100 N7 29.81R ELIZABETHTOWN DRIZZLE 53 53 100 N9G17 29.78S GOLDSBORO RAIN 54 52 94 N14 29.79R GREENVILLE HVY RAIN 54 54 100 NE8 29.84F HAVELOCK CLOUDY 60 59 96 E6 29.80F FOG KENANSVILLE CLOUDY 58 57 98 CALM 29.77F FOG KINSTON NOT AVBL NEW BERN CLOUDY 64 61 90 SW13 29.79F FOG RICHLANDS CLOUDY 63 61 94 SE7 29.76F ROCKY MOUNT HVY RAIN 50 49 96 NE5G30 29.89R FOG WASHINGTON CLOUDY 56 56 97 NE6 29.80F WHITEVILLE HVY RAIN 54 54 100 NW3 29.77R $$ AMZ130-135-150-152-154-156-158-170-250-252-270-ANZ085-086-088-633-658-670-261200- MARINE OBSERVATIONS STATION/POSITION TIME TEMP WIND PRES WAVE SWELL AIR SEA DIR/SP/G HT/PER HT/PER (UTC) (F) (DEG/KT/KT) (MB) (FT/S) (FT/S) CHESAPEAKE LIGHT 1100 51 50/ 36/ 40 1012.2 64 E VA BEACH 1100 61 66 60/ 23/ 29 1010.9 7/ 6 2/15 DUCK 1100 58 58 40/ 21/ 26 1010.1 2 E DUCK 1100 58 N/A 7/ 5 10 NE DUCK 1100 59 N/A 7/ 6 2/11 OREGON INLET 1100 62 57 60/ 6/ 7 1010.4 13E OREGON INLT 1100 62 N/A 5/ 9 2/11 HATTERAS CG 1100 68 62 130/ 4/ 6 1010.0 DIAMOND BUOY 1100 74 170/ 19/ 23 1009.3 5/ 8 5/ 8 17 S OCRACOKE NOT AVBL CAPE LOOKOUT 1100 68 160/ 14/ 16 1008.6 BEAUFORT LAB 1100 66 59 140/ 10/ 11 1007.6 30 SE NEW RIVER 1100 73 67 170/ 16/ 19 1008.1 7/ 5 3/ 8 5 SE WRIGHTSVLE 1100 62 59 190/ 12/ 14 1006.5 225 S CAPE HAT 1023 75 73 180/ 21/ 25 1014.3 7/ 7 2/10 41 SE CHARLESTON 1100 76 75 180/ 25/ 31 1005.8 10/ 7 2/17 $$

USA.gov is the U.S. government's official web portal to all federal, state and local government web resources and services.